Date,TemperatureHighF,TemperatureAvgF,TemperatureLowF,DewpointHighF,DewpointAvgF,DewpointLowF,HumidityHigh,HumidityAvg,HumidityLow,PressureMaxIn,PressureMinIn,WindSpeedMaxMPH,WindSpeedAvgMPH,GustSpeedMaxMPH,PrecipitationSumIn
2013-1-1,31.6,25.2,12.7,13.6,-6.3,-22.8,48,27,10,30.21,29.99,19,8,31,0.01
2013-1-2,27.0,11.6,4.5,-6.3,-15.9,-26.7,48,29,10,30.39,30.19,14,4,21,0.00
2013-1-3,23.4,8.5,-2.7,-8.0,-29.2,-43.9,36,16,10,30.42,30.28,14,5,18,0.00
2013-1-4,37.0,26.4,14.9,8.4,-2.6,-15.1,65,31,10,30.28,30.11,18,6,21,0.00
2013-1-5,39.9,30.7,20.7,2.6,-8.1,-22.1,33,19,10,30.51,30.14,19,6,27,0.00
2013-1-6,41.0,29.3,21.7,22.1,9.2,-3.1,88,47,15,30.49,30.21,10,3,14,0.01
2013-1-7,37.8,28.5,18.3,19.9,-8.1,-22.1,64,23,10,30.64,30.44,16,4,18,0.00
2013-1-8,41.9,32.0,18.5,10.0,-0.4,-11.8,46,27,10,30.65,30.56,18,6,19,0.00
2013-1-9,41.4,33.5,23.9,25.7,10.2,-12.9,76,44,10,30.68,30.29,16,5,22,0.01
2013-1-10,44.6,37.1,30.0,1.2,-9.0,-16.8,25,14,10,30.81,30.32,25,8,29,0.00
2013-1-11,35.4,30.9,23.5,33.6,11.0,-12.5,99,51,12,30.80,30.45,7,2,11,0.14
2013-1-12,42.1,37.6,33.4,41.8,37.3,33.2,99,99,99,30.50,30.41,8,2,8,0.02
2013-1-13,46.0,42.3,37.4,45.8,42.1,37.1,99,99,99,30.47,30.27,13,4,15,0.00
2013-1-14,55.8,44.2,33.1,50.8,21.3,-10.8,99,55,10,30.53,30.22,17,6,20,0.02
2013-1-15,38.5,32.5,27.0,8.3,-9.9,-20.1,42,17,10,30.61,30.48,7,2,11,0.00
2013-1-16,31.5,29.6,26.6,29.6,17.6,-18.3,96,68,11,30.49,30.07,3,0,4,0.00
2013-1-17,39.0,30.6,23.2,29.8,-1.3,-25.2,97,36,10,30.40,30.12,13,3,18,0.17
2013-1-18,24.3,16.7,10.4,-24.4,-30.2,-35.2,10,10,10,30.71,30.34,21,5,21,0.00
2013-1-19,44.8,31.8,16.9,-8.4,-18.5,-30.1,10,10,10,30.63,30.18,25,11,27,0.01
2013-1-20,47.3,35.7,23.4,-6.5,-15.5,-25.1,10,10,10,30.23,29.91,22,10,27,0.00
2013-1-21,22.8,18.5,13.3,-5.7,-23.2,-32.9,37,15,10,30.37,30.08,22,4,22,0.00
2013-1-22,22.5,13.9,5.4,-2.8,-26.1,-39.2,41,16,10,30.36,30.06,18,5,21,0.00
2013-1-23,12.0,4.4,-3.6,-33.9,-40.0,-46.3,10,10,10,30.42,30.33,21,6,21,0.00
2013-1-24,17.8,4.8,-6.7,-29.4,-39.6,-48.7,10,10,10,30.52,30.36,17,8,23,0.00
2013-1-25,21.9,10.2,0.0,-26.2,-35.4,-43.4,10,10,10,30.61,30.35,11,4,13,0.00
2013-1-26,22.3,11.7,5.0,-25.9,-34.2,-39.5,11,10,10,30.53,30.31,16,7,21,0.00
2013-1-27,29.8,15.3,5.9,-20.0,-31.4,-38.7,10,10,10,30.75,30.52,14,6,17,0.00
2013-1-28,25.2,19.0,10.0,9.6,-15.0,-35.5,55,26,10,30.76,30.30,10,2,10,0.00
2013-1-29,32.7,28.3,22.8,28.8,15.0,5.9,87,58,34,30.50,30.32,4,1,8,0.00
2013-1-30,55.6,46.3,32.4,54.3,45.1,29.5,99,96,89,30.42,29.75,20,6,26,0.18
2013-1-31,58.3,45.4,28.9,56.0,21.5,-20.7,97,54,10,29.82,29.34,25,14,38,1.13
2013-2-1,27.5,22.8,16.0,-21.8,-25.6,-31.2,10,10,10,30.38,30.00,22,5,24,0.00
2013-2-2,26.8,17.0,8.6,-20.1,-30.2,-36.6,16,10,10,30.53,30.33,16,5,17,0.00
2013-2-3,26.4,20.7,12.0,-2.2,-19.2,-30.7,43,18,10,30.36,30.06,5,1,7,0.00
2013-2-4,25.5,18.8,14.4,-23.4,-28.6,-32.1,10,10,10,30.25,30.07,21,6,25,0.00
2013-2-5,33.6,21.0,14.4,-1.3,-24.6,-32.1,37,12,10,30.31,30.20,8,2,10,0.00
2013-2-6,33.6,24.6,17.8,6.2,-12.2,-28.9,47,23,10,30.61,30.24,14,4,22,0.01
2013-2-7,31.6,20.2,8.8,-18.6,-27.6,-36.5,10,10,10,30.82,30.61,9,3,10,0.00
2013-2-8,24.8,20.3,14.5,0.1,-14.0,-27.6,41,23,10,30.75,29.98,19,7,27,0.00
2013-2-9,21.9,14.9,10.4,-11.7,-22.1,-35.2,29,19,10,30.53,29.97,22,14,27,0.00
2013-2-10,37.0,14.9,6.8,-14.4,-31.9,-38.4,10,10,10,30.76,30.55,15,8,17,0.00
2013-2-11,41.5,32.8,19.2,41.3,14.8,-28.3,99,62,10,30.64,29.95,12,4,14,0.24
2013-2-12,38.7,34.5,31.3,35.0,-8.0,-18.9,99,21,10,30.19,29.95,21,6,27,0.00
2013-2-13,43.2,32.5,28.8,-9.7,-18.0,-20.8,10,10,10,30.20,30.03,10,4,14,0.00
2013-2-14,46.8,33.5,25.3,-6.9,-17.2,-23.5,10,10,10,30.31,30.05,11,3,11,0.00
2013-2-15,52.2,36.4,25.2,13.0,-7.1,-22.5,53,18,10,30.32,30.17,21,4,21,0.00
2013-2-16,38.5,31.1,24.1,19.2,-7.5,-24.5,67,25,10,30.30,30.06,11,4,14,0.04
2013-2-17,23.7,17.0,10.0,-24.8,-30.0,-35.5,10,10,10,30.05,29.78,26,12,37,0.00
2013-2-18,29.1,16.8,7.2,-20.8,-30.2,-37.8,10,10,10,30.47,30.04,23,9,23,0.00
2013-2-19,45.1,28.4,14.5,35.2,-12.3,-32.3,83,23,10,30.50,29.92,14,4,17,0.20
2013-2-20,36.0,26.5,20.7,29.1,-14.7,-27.2,76,21,10,30.11,29.90,22,5,27,0.02
2013-2-21,30.2,22.9,18.3,-19.7,-25.4,-29.0,10,10,10,30.55,30.10,22,10,26,0.00
2013-2-22,43.9,31.7,19.0,-9.1,-18.2,-26.7,17,10,10,30.70,30.55,14,3,17,0.00
2013-2-23,32.2,30.2,28.2,23.2,-0.4,-21.3,72,36,10,30.63,30.20,12,4,12,0.00
2013-2-24,34.5,32.0,30.2,28.1,24.5,21.1,81,74,60,30.22,29.99,10,1,11,0.17
2013-2-25,38.1,30.6,25.7,23.9,15.6,-14.3,76,57,10,30.56,30.22,7,1,8,0.18
2013-2-26,42.1,33.9,30.6,25.0,2.3,-17.8,73,35,10,30.62,30.44,9,3,14,0.06
2013-2-27,37.8,33.4,31.1,34.5,26.0,8.6,89,75,37,30.45,29.95,16,6,23,0.45
2013-2-28,45.0,34.4,29.7,29.7,22.3,-10.1,83,66,10,29.99,29.86,7,2,8,0.02
2013-3-1,42.4,34.6,30.4,26.9,-1.7,-19.6,76,31,10,30.02,29.89,13,6,16,0.00
2013-3-2,36.3,32.5,28.6,-15.0,-17.9,-21.0,10,10,10,30.03,29.96,11,5,14,0.00
2013-3-3,33.6,27.9,25.5,7.1,-18.3,-23.7,38,13,10,30.01,29.93,11,5,14,0.00
2013-3-4,39.9,28.9,21.9,-12.2,-20.7,-26.2,10,10,10,30.11,29.93,17,8,22,0.00
2013-3-5,44.1,32.1,23.9,-6.6,-17.6,-24.6,18,10,10,30.40,30.11,12,5,15,0.00
2013-3-6,36.1,32.0,29.1,25.1,18.0,-10.2,72,57,15,30.40,30.35,17,6,20,0.05
2013-3-7,32.5,29.3,26.8,21.7,10.8,-12.8,74,50,13,30.40,30.32,19,7,21,0.01
2013-3-8,37.6,31.1,27.1,26.4,8.1,-19.4,76,51,10,30.50,30.30,16,6,16,0.04
2013-3-9,59.0,39.0,26.4,2.5,-11.9,-22.7,27,11,10,30.65,30.49,11,4,15,0.00
2013-3-10,52.9,38.1,24.4,11.5,-3.9,-15.4,51,21,10,30.75,30.59,9,3,11,0.00
2013-3-11,52.5,40.0,31.3,24.3,3.1,-12.1,50,25,10,30.63,30.47,13,6,17,0.00
2013-3-12,50.4,46.4,40.6,50.1,41.1,25.2,99,83,52,30.48,30.07,14,6,19,0.74
2013-3-13,48.4,38.2,30.7,39.7,4.6,-19.3,99,39,10,30.18,30.09,16,6,17,0.00
2013-3-14,32.2,25.5,17.1,-18.2,-23.4,-30.0,10,10,10,30.23,30.12,16,8,24,0.00
2013-3-15,38.7,26.1,14.0,12.4,-19.3,-32.4,47,14,10,30.25,30.04,18,7,22,0.00
2013-3-16,38.8,29.4,21.6,-3.5,-19.1,-26.5,25,11,10,30.26,30.08,14,4,17,0.00
2013-3-17,35.1,26.1,18.9,-16.0,-22.9,-28.6,10,10,10,30.68,30.26,14,6,21,0.00
2013-3-18,39.6,25.2,10.2,2.0,-21.3,-35.3,36,12,10,30.82,30.58,7,3,11,0.00
2013-3-19,32.5,29.0,24.8,24.5,19.1,8.4,72,66,49,30.50,30.04,11,5,13,0.00
2013-3-20,36.7,26.7,19.6,17.3,-11.2,-26.5,69,24,10,30.21,30.11,18,4,22,0.11
2013-3-21,41.7,28.0,17.4,-8.9,-18.8,-29.3,28,12,10,30.21,30.00,11,3,11,0.00
2013-3-22,37.8,28.3,18.3,-13.9,-21.2,-29.0,10,10,10,30.16,30.00,20,6,20,0.00
2013-3-23,39.6,31.0,21.2,-12.5,-19.1,-26.7,10,10,10,30.21,30.04,21,7,27,0.00
2013-3-24,46.2,35.2,27.1,-7.3,-15.8,-22.1,10,10,10,30.25,30.06,15,6,18,0.00
2013-3-25,43.5,34.7,27.7,-9.4,-16.3,-21.7,10,10,10,30.14,29.86,12,4,17,0.00
2013-3-26,46.6,36.2,31.8,-7.0,-15.1,-18.5,10,10,10,30.16,29.92,12,4,14,0.00
2013-3-27,49.6,38.0,25.2,-4.7,-13.7,-23.7,10,10,10,30.24,30.13,14,5,18,0.00
2013-3-28,48.6,37.2,32.5,15.9,-3.2,-16.5,49,21,10,30.38,30.23,13,4,13,0.00
2013-3-29,57.0,42.3,32.2,3.1,-9.0,-16.0,28,11,10,30.40,30.33,11,4,16,0.00
2013-3-30,55.2,38.4,28.8,-0.4,-12.7,-20.7,21,11,10,30.48,30.38,14,4,19,0.00
2013-3-31,57.2,45.2,28.8,15.0,-5.2,-21.0,37,13,10,30.50,30.11,19,6,19,0.09
2013-4-1,58.3,40.4,28.9,32.3,7.6,-20.7,71,34,10,30.19,29.93,29,7,29,0.14
2013-4-2,34.5,28.9,23.5,-16.4,-20.8,-24.9,10,10,10,30.29,30.18,27,10,32,0.00
2013-4-3,42.3,31.6,23.7,-10.4,-18.7,-24.8,10,10,10,30.52,30.29,22,10,25,0.00
2013-4-4,54.0,38.0,24.4,-1.3,-13.7,-24.2,10,10,10,30.67,30.42,19,6,19,0.00
2013-4-5,58.1,43.1,33.4,1.9,-9.8,-17.2,10,10,10,30.42,30.08,16,7,19,0.00
2013-4-6,45.0,33.6,26.4,-8.3,-17.1,-22.7,10,10,10,30.71,30.30,17,7,24,0.00
2013-4-7,57.4,41.2,27.7,12.8,-10.1,-21.7,29,11,10,30.70,30.37,21,7,24,0.00
2013-4-8,68.0,50.8,39.7,25.9,7.7,-7.7,56,22,10,30.47,30.36,11,4,14,0.00
2013-4-9,64.9,53.8,42.8,39.3,7.2,-7.9,68,20,10,30.44,30.28,19,5,24,0.04
2013-4-10,64.4,52.4,44.4,40.3,21.4,-4.4,71,38,10,30.41,30.23,8,2,9,0.27
2013-4-11,51.3,44.5,35.1,40.1,8.4,-15.0,76,33,10,30.52,30.22,11,4,13,0.05
2013-4-12,35.8,33.0,31.6,23.0,18.8,8.2,68,56,32,30.52,30.18,14,4,29,0.35
2013-4-13,55.0,40.7,32.0,24.2,7.3,-10.2,71,34,10,30.34,30.16,11,3,14,0.08
2013-4-14,40.6,36.6,34.2,22.9,20.0,6.7,58,51,24,30.36,30.32,3,2,5,0.00
2013-4-15,61.3,46.3,32.0,20.1,2.3,-16.2,51,21,10,30.76,30.36,9,3,12,0.00
2013-4-16,65.1,49.7,33.8,33.0,2.5,-16.9,46,16,10,30.77,30.46,24,9,27,0.01
2013-4-17,64.0,53.4,42.4,41.8,7.4,-10.2,69,19,10,30.73,30.47,18,6,23,0.01
2013-4-18,61.2,50.3,37.6,17.7,-3.3,-14.0,28,11,10,30.80,30.52,15,6,16,0.00
2013-4-19,71.6,60.1,48.4,57.9,42.8,11.9,91,59,10,30.52,30.04,28,9,32,0.12
2013-4-20,61.5,47.8,35.6,59.4,15.6,-15.5,96,42,10,30.63,30.03,16,7,24,0.25
2013-4-21,52.9,39.2,28.4,-2.2,-11.7,-20.3,19,11,10,31.04,30.63,16,5,17,0.00
2013-4-22,55.2,43.9,31.3,11.5,-3.7,-17.3,39,15,10,31.12,30.96,13,6,17,0.00
2013-4-23,38.1,35.7,32.2,34.5,23.6,9.1,89,63,35,30.96,30.53,8,4,12,0.00
2013-4-24,74.7,54.4,37.9,39.9,24.2,3.2,96,48,10,30.51,30.20,20,6,23,0.00
2013-4-25,61.3,50.2,40.8,46.1,9.4,-11.1,88,28,10,30.68,30.22,23,7,23,0.13
2013-4-26,63.9,49.7,36.9,6.3,-4.5,-14.6,13,10,10,30.80,30.68,13,3,13,0.00
2013-4-27,66.6,52.0,35.1,16.5,2.4,-10.0,44,14,10,30.81,30.65,9,3,10,0.00
2013-4-28,74.1,55.2,36.7,28.0,9.5,-7.7,63,21,10,30.72,30.56,9,3,14,0.00
2013-4-29,68.2,51.6,43.5,27.4,6.5,-9.2,49,19,10,30.65,30.58,15,3,15,0.00
2013-4-30,75.0,58.8,46.2,14.8,2.4,-7.3,11,10,10,30.74,30.64,11,3,12,0.00
2013-5-1,75.6,58.2,39.9,15.2,1.9,-12.2,13,10,10,30.85,30.74,9,3,13,0.00
2013-5-2,82.9,59.8,43.2,20.8,9.1,-6.9,33,15,10,30.86,30.70,12,3,12,0.00
2013-5-3,67.6,51.8,38.5,29.3,9.6,-7.0,57,22,10,30.89,30.75,11,4,14,0.00
2013-5-4,71.4,54.2,38.1,39.8,12.9,-10.5,78,29,10,30.75,30.64,11,3,14,0.00
2013-5-5,70.9,50.9,31.5,26.7,9.3,-4.5,68,25,10,30.71,30.60,11,3,11,0.00
2013-5-6,77.0,54.7,34.2,36.1,17.6,1.4,74,33,10,30.67,30.51,8,3,12,0.00
2013-5-7,82.6,63.4,43.5,44.1,25.4,7.4,80,34,10,30.57,30.46,11,3,15,0.00
2013-5-8,72.0,58.4,52.2,60.0,48.6,33.9,99,72,25,30.58,30.43,16,2,16,0.12
2013-5-9,68.4,59.2,52.7,60.7,56.2,49.1,99,91,52,30.42,30.27,7,2,9,0.13
2013-5-10,81.3,65.2,49.1,60.5,44.5,26.2,99,58,14,30.37,30.29,11,2,14,0.01
2013-5-11,63.5,59.8,56.1,63.2,57.4,50.8,99,92,67,30.30,30.09,14,4,19,0.24
2013-5-12,69.4,56.9,44.2,59.1,39.6,11.2,99,61,18,30.21,29.99,14,4,17,0.01
2013-5-13,54.1,44.9,38.3,25.2,11.6,-4.1,56,30,10,30.44,30.22,17,5,18,0.00
2013-5-14,58.5,46.1,36.1,27.0,11.9,-3.3,67,32,10,30.45,30.39,13,3,14,0.00
2013-5-15,63.7,48.5,33.1,51.4,29.7,0.6,99,62,10,30.46,30.09,17,5,18,0.07
2013-5-16,80.2,65.0,44.6,52.3,24.1,4.8,99,35,10,30.19,30.06,15,5,24,0.00
2013-5-17,69.1,55.9,45.3,37.5,20.0,3.6,74,31,10,30.60,30.21,13,4,16,0.00
2013-5-18,75.6,58.8,41.4,39.4,23.1,8.2,69,34,10,30.71,30.61,10,3,14,0.00
2013-5-19,69.1,56.3,46.2,54.6,45.9,31.4,99,74,25,30.73,30.59,9,3,13,0.11
2013-5-20,82.9,65.9,53.4,63.6,56.7,49.1,99,77,31,30.59,30.33,9,2,12,0.04
2013-5-21,92.5,65.5,49.1,63.6,55.4,46.9,99,77,22,30.46,30.23,10,3,12,0.01
2013-5-22,78.6,57.3,48.7,68.9,55.0,48.5,99,93,57,30.42,30.25,14,3,14,0.53
2013-5-23,73.9,63.6,55.2,71.2,63.2,55.0,99,98,87,30.30,30.18,11,4,17,1.20
2013-5-24,68.2,58.2,43.7,67.0,55.8,41.7,99,92,69,30.25,30.04,13,4,15,0.38
2013-5-25,46.8,42.1,37.2,46.5,41.7,36.8,99,99,95,30.25,30.16,13,5,19,0.21
2013-5-26,54.1,44.6,34.7,38.9,31.9,20.2,99,67,28,30.50,30.16,11,4,18,0.04
2013-5-27,73.0,54.7,35.4,43.1,25.1,6.8,99,48,10,30.58,30.48,10,2,14,0.00
2013-5-28,77.9,61.3,42.8,50.1,25.5,8.6,76,35,10,30.63,30.55,5,2,9,0.00
2013-5-29,78.3,62.4,55.0,68.0,59.6,51.1,99,92,55,30.56,30.39,5,2,9,0.32
2013-5-30,88.7,68.8,58.8,70.8,63.1,58.5,99,85,46,30.50,30.44,11,2,11,0.01
2013-5-31,95.4,79.1,62.8,72.4,64.5,58.3,99,67,33,30.51,30.36,11,2,13,0.00
2013-6-1,93.6,78.9,63.1,69.3,65.1,60.4,99,67,36,30.39,30.27,9,3,17,0.00
2013-6-2,89.2,75.7,65.5,71.3,65.9,54.7,99,77,31,30.29,30.13,14,4,21,0.13
2013-6-3,80.4,66.8,52.2,67.2,59.2,38.9,99,79,45,30.26,30.17,13,2,13,0.19
2013-6-4,72.7,58.1,43.3,46.6,33.3,18.2,89,46,13,30.50,30.26,9,2,10,0.00
2013-6-5,80.1,61.8,45.7,51.7,36.6,14.1,99,53,10,30.59,30.50,5,1,9,0.00
2013-6-6,74.7,60.0,48.9,54.7,44.4,26.2,99,64,18,30.58,30.49,8,2,11,0.07
2013-6-7,54.1,52.6,49.6,53.9,52.3,49.4,99,99,99,30.49,30.22,11,2,11,1.09
2013-6-8,79.7,61.0,49.6,58.8,53.7,49.4,99,81,36,30.42,30.07,11,3,14,0.52
2013-6-9,81.1,65.7,52.5,59.2,49.6,34.8,99,65,20,30.58,30.42,6,1,11,0.00
2013-6-10,72.7,61.1,54.1,63.1,56.8,48.5,99,88,47,30.59,30.38,11,2,11,0.74
2013-6-11,64.0,57.2,53.2,60.0,56.2,53.0,99,96,80,30.38,29.99,8,2,14,0.58
2013-6-12,67.1,58.8,52.5,57.5,51.3,42.2,99,80,43,30.25,29.98,9,2,13,0.00
2013-6-13,59.4,53.0,48.6,57.9,52.4,48.3,99,98,87,30.24,30.08,10,2,10,0.92
2013-6-14,77.5,58.8,47.8,57.8,48.7,27.0,99,75,16,30.22,30.06,5,2,9,0.38
2013-6-15,80.8,65.2,52.0,50.8,33.5,13.3,86,42,10,30.36,30.22,8,2,11,0.00
2013-6-16,77.4,64.6,50.9,57.2,44.1,26.1,82,52,16,30.36,30.13,13,3,13,0.00
2013-6-17,87.4,65.1,55.0,66.9,56.2,40.0,99,81,19,30.31,30.19,9,1,15,0.32
2013-6-18,79.2,59.6,54.7,64.8,57.3,51.2,99,94,40,30.34,30.29,4,1,8,0.17
2013-6-19,79.0,62.1,50.4,54.4,40.6,11.5,99,58,10,30.56,30.32,5,1,9,0.01
2013-6-20,81.0,65.3,47.3,57.4,36.3,16.7,93,46,10,30.67,30.57,10,2,14,0.00
2013-6-21,85.6,68.8,54.9,63.6,50.3,22.9,99,61,10,30.66,30.59,6,2,11,0.00
2013-6-22,87.4,71.6,56.7,61.4,51.6,30.6,99,58,13,30.62,30.50,10,3,14,0.00
2013-6-23,79.7,75.1,71.4,69.4,66.2,60.0,92,75,51,30.45,30.40,10,4,14,0.00
2013-6-24,94.1,77.8,66.4,72.5,65.4,56.1,99,73,29,30.43,30.29,14,2,14,0.06
2013-6-25,91.6,80.9,65.8,69.5,62.6,54.7,99,59,29,30.34,30.13,12,3,16,0.01
2013-6-26,84.2,73.9,66.0,70.5,65.1,58.8,99,77,43,30.24,30.14,8,1,11,0.00
2013-6-27,78.8,70.1,64.2,69.0,67.2,64.0,99,91,66,30.24,30.14,8,2,8,0.00
2013-6-28,79.2,64.2,59.0,73.8,63.3,58.7,99,97,73,30.12,29.88,11,4,17,0.74
2013-6-29,84.2,74.6,66.7,71.9,68.6,65.8,99,83,56,30.11,29.95,12,4,16,0.00
2013-6-30,88.2,75.6,68.2,72.2,69.7,67.4,99,84,52,30.31,30.11,11,4,14,0.00
2013-7-1,77.0,71.7,68.7,75.5,71.3,68.5,99,99,89,30.45,30.32,7,2,9,1.07
2013-7-2,84.7,74.4,69.8,75.5,71.9,69.5,99,92,71,30.55,30.44,11,4,12,0.04
2013-7-3,88.3,76.8,69.8,74.7,72.3,69.5,99,87,56,30.59,30.52,12,4,14,0.00
2013-7-4,92.8,80.9,71.6,75.7,72.8,70.8,99,79,50,30.60,30.48,10,4,17,0.00
2013-7-5,95.5,82.2,70.9,75.7,73.1,70.6,99,77,46,30.55,30.44,13,4,14,0.00
2013-7-6,91.4,78.7,68.2,75.9,71.5,66.7,99,81,46,30.48,30.38,8,1,8,0.00
2013-7-7,96.6,75.8,64.9,78.5,70.6,64.7,99,86,45,30.43,30.31,7,1,8,0.02
2013-7-8,91.2,76.7,68.2,77.4,71.3,67.0,99,86,49,30.43,30.31,11,1,11,0.02
2013-7-9,78.3,70.9,65.5,72.4,69.0,65.2,99,94,79,30.48,30.41,8,2,8,0.04
2013-7-10,86.7,72.4,65.5,76.9,70.7,65.2,99,95,71,30.44,30.18,14,3,14,0.37
2013-7-11,87.6,75.0,67.5,75.0,71.0,67.0,99,89,56,30.33,30.17,5,1,8,0.01
2013-7-12,82.6,69.9,62.6,66.1,61.2,57.1,99,76,49,30.57,30.34,11,2,15,0.00
2013-7-13,78.3,69.5,62.6,73.2,66.7,57.4,99,91,80,30.69,30.57,6,2,8,0.01
2013-7-14,88.5,80.1,70.3,75.0,72.3,70.1,99,79,58,30.69,30.59,2,1,7,0.00
2013-7-15,95.9,83.2,70.2,76.9,71.1,66.9,99,70,40,30.60,30.50,5,1,6,0.00
2013-7-16,94.8,78.3,69.1,72.7,68.7,63.3,96,76,37,30.57,30.51,5,1,6,0.00
2013-7-17,97.3,81.3,68.4,73.3,70.3,67.7,99,74,40,30.58,30.39,8,1,9,0.00
2013-7-18,98.1,82.5,72.7,77.4,73.6,67.9,99,79,38,30.40,30.31,5,1,10,0.00
2013-7-19,96.6,83.4,71.2,76.6,73.8,71.0,99,76,45,30.32,30.11,11,3,15,0.00
2013-7-20,91.2,78.7,66.4,79.6,71.6,63.2,99,80,58,30.20,30.06,9,2,11,0.04
2013-7-21,91.9,74.1,60.4,69.8,64.0,57.9,99,75,34,30.36,30.21,4,1,8,0.00
2013-7-22,87.4,72.8,63.7,71.5,67.3,63.4,99,85,51,30.39,30.25,13,2,13,0.00
2013-7-23,88.0,70.9,66.4,76.8,70.1,66.1,99,97,67,30.24,29.94,7,2,8,1.09
2013-7-24,85.3,73.8,61.2,73.7,64.7,54.6,99,76,43,30.35,29.99,6,1,13,0.00
2013-7-25,68.0,59.6,53.2,60.4,53.8,46.5,99,82,61,30.49,30.36,8,2,9,0.01
2013-7-26,69.6,63.0,58.8,65.6,61.4,58.6,99,95,78,30.46,30.38,5,2,10,0.20
2013-7-27,86.2,69.8,56.3,68.9,60.9,52.4,99,78,32,30.47,30.38,10,2,10,0.01
2013-7-28,84.7,69.8,57.9,72.6,63.8,57.7,99,85,44,30.40,30.35,6,1,8,0.00
2013-7-29,88.7,73.6,64.6,71.3,62.5,50.3,99,73,27,30.45,30.35,10,2,14,0.00
2013-7-30,84.2,70.1,55.9,58.8,51.7,40.0,99,58,23,30.50,30.44,8,1,8,0.00
2013-7-31,72.0,72.0,72.0,51.2,51.2,51.2,48,48,48,30.45,30.45,2,2,4,0.00
2013-8-1,79.2,69.7,62.1,68.5,58.8,51.2,99,72,47,30.45,30.26,11,3,12,0.35
2013-8-2,84.7,75.6,62.2,71.0,55.9,42.7,99,60,23,30.26,30.19,6,2,14,0.77
2013-8-3,84.7,73.2,56.5,65.4,53.7,46.9,99,56,28,30.26,30.19,10,3,11,0.07
2013-8-4,83.8,64.2,53.8,63.6,52.6,35.4,99,75,18,30.31,30.19,8,1,14,0.08
2013-8-5,77.7,60.4,49.6,56.4,39.7,13.0,99,60,10,30.46,30.32,8,2,11,0.01
2013-8-6,81.3,63.9,48.4,56.0,43.6,24.0,97,57,13,30.54,30.46,4,1,8,0.00
2013-8-7,80.4,66.5,53.6,61.5,50.6,28.0,99,66,15,30.58,30.49,10,3,14,0.00
2013-8-8,81.9,70.1,63.5,71.7,66.9,61.4,99,91,54,30.50,30.40,10,4,14,0.01
2013-8-9,74.1,71.0,69.6,73.9,70.7,69.4,99,99,99,30.41,30.15,11,3,13,1.36
2013-8-10,84.6,70.0,56.3,69.2,54.9,36.0,99,67,18,30.42,30.21,8,2,12,0.00
2013-8-11,82.4,64.0,50.7,61.0,49.0,30.3,99,69,16,30.50,30.40,7,1,11,0.00
2013-8-12,85.1,68.7,56.8,66.3,53.3,31.3,99,69,16,30.44,30.32,5,1,8,0.00
2013-8-13,73.6,65.4,60.1,70.4,64.4,59.8,99,97,77,30.33,30.09,6,1,11,0.11
2013-8-14,72.9,61.8,50.9,64.0,49.7,37.4,99,70,29,30.38,30.09,11,2,16,0.01
2013-8-15,78.3,59.7,47.3,61.6,46.5,27.4,99,72,16,30.52,30.38,11,1,11,0.01
2013-8-16,81.0,64.0,51.4,60.4,47.5,29.0,99,66,16,30.60,30.52,7,1,11,0.00
2013-8-17,87.1,66.9,53.6,64.4,52.7,26.3,99,71,11,30.68,30.60,5,1,5,0.00
2013-8-18,82.4,67.1,55.8,65.5,57.9,38.6,99,78,21,30.67,30.49,4,0,8,0.00
2013-8-19,83.3,68.3,55.8,67.0,56.8,44.5,99,73,27,30.49,30.37,6,1,6,0.00
2013-8-20,89.1,71.2,58.3,70.6,55.7,35.5,99,68,16,30.50,30.41,8,1,8,0.00
2013-8-21,91.0,72.6,59.7,68.6,58.4,43.7,99,71,21,30.56,30.42,7,1,11,0.00
2013-8-22,88.2,73.8,60.1,71.4,63.6,51.0,99,76,29,30.44,30.23,12,2,12,0.00
2013-8-23,82.4,69.0,57.6,69.4,51.4,31.5,99,61,16,30.52,30.23,9,2,12,0.00
2013-8-24,84.4,64.4,50.9,54.6,40.7,16.9,95,55,10,30.73,30.52,4,1,6,0.00
2013-8-25,85.6,67.2,52.0,59.4,44.3,19.7,99,58,10,30.77,30.57,8,1,11,0.00
2013-8-26,79.5,68.9,60.3,68.6,59.3,48.2,99,74,43,30.58,30.28,9,2,13,0.05
2013-8-27,92.7,73.7,66.4,73.5,66.0,51.6,99,82,28,30.29,30.22,5,1,6,0.08
2013-8-28,89.1,73.3,64.0,72.9,64.6,50.7,99,79,28,30.34,30.23,8,1,11,0.00
2013-8-29,67.5,63.3,59.5,67.2,63.1,59.3,99,99,99,30.46,30.31,7,2,8,0.15
2013-8-30,85.6,69.2,58.6,69.9,62.6,55.2,99,83,36,30.43,30.23,8,1,10,0.00
2013-8-31,79.9,72.4,66.6,76.9,71.2,66.3,99,96,78,30.23,30.18,8,2,11,0.08
2013-9-1,79.7,72.2,66.4,77.8,71.6,66.1,99,98,82,30.27,30.19,10,2,10,0.20
2013-9-2,80.1,72.8,69.4,77.8,72.2,69.2,99,98,82,30.25,30.10,6,2,9,0.14
2013-9-3,80.2,69.5,57.4,73.9,64.5,57.1,99,86,55,30.23,30.10,4,0,8,0.00
2013-9-4,82.9,65.7,53.8,65.6,49.9,20.3,99,68,10,30.33,30.22,8,1,12,0.00
2013-9-5,73.8,60.5,48.9,62.5,45.3,11.7,99,69,10,30.54,30.27,5,1,10,0.00
2013-9-6,72.7,54.8,41.9,48.2,31.9,7.4,99,58,10,30.66,30.50,4,1,6,0.00
2013-9-7,78.8,61.1,45.3,59.2,44.1,21.6,99,65,12,30.50,30.25,8,1,9,0.00
2013-9-8,72.0,60.2,46.9,62.7,42.5,8.6,99,63,10,30.49,30.18,8,2,11,0.00
2013-9-9,71.1,54.8,39.7,55.1,34.8,8.2,99,60,10,30.63,30.49,8,2,8,0.00
2013-9-10,75.2,65.3,54.9,72.4,64.4,51.0,99,97,85,30.54,30.43,12,5,21,0.09
2013-9-11,94.8,79.2,68.2,79.2,70.1,59.9,99,79,32,30.48,30.35,11,3,14,0.05
2013-9-12,84.4,72.2,64.8,79.1,69.3,64.5,99,92,58,30.35,30.05,11,3,16,0.83
2013-9-13,77.4,65.2,55.6,71.8,61.8,55.3,99,90,51,30.16,29.99,6,2,9,0.02
2013-9-14,68.4,56.3,48.7,55.1,47.8,38.7,99,78,35,30.45,30.17,10,2,14,0.00
2013-9-15,72.5,56.2,43.3,56.0,42.4,12.5,99,71,10,30.57,30.45,7,1,9,0.00
2013-9-16,66.2,54.6,41.7,56.9,47.2,31.5,99,79,42,30.64,30.41,8,2,8,0.02
2013-9-17,68.0,48.6,36.0,44.2,28.6,3.8,99,60,10,30.82,30.65,7,2,8,0.00
2013-9-18,78.1,56.0,41.0,54.2,36.6,10.5,99,66,10,30.70,30.53,8,1,8,0.00
2013-9-19,83.3,61.0,46.0,63.1,43.7,15.6,99,70,10,30.55,30.42,4,1,7,0.00
2013-9-20,83.8,62.7,48.2,62.7,46.0,18.4,99,71,10,30.48,30.38,4,1,6,0.00
2013-9-21,73.4,62.7,52.2,65.8,57.5,43.4,99,85,40,30.42,30.10,13,6,19,0.00
2013-9-22,69.8,60.1,46.6,66.7,48.8,29.3,99,71,22,30.25,29.99,10,3,14,0.57
2013-9-23,64.8,49.9,41.4,42.3,30.6,7.4,89,56,11,30.41,30.25,11,2,14,0.00
2013-9-24,67.8,50.3,37.2,43.2,29.0,4.6,99,58,10,30.41,30.22,13,2,13,0.00
2013-9-25,73.9,55.6,41.7,51.2,38.6,14.9,99,65,11,30.38,30.25,7,1,8,0.00
2013-9-26,71.6,56.3,49.3,52.1,41.1,11.2,99,68,10,30.51,30.38,4,1,5,0.00
2013-9-27,65.1,55.3,49.3,52.3,47.8,36.8,99,80,35,30.67,30.51,4,0,7,0.00
2013-9-28,59.2,49.7,48.2,52.3,48.9,46.6,99,97,63,30.73,30.66,2,1,3,0.00
2013-9-29,75.9,57.7,45.0,59.4,37.5,10.4,99,62,10,30.66,30.48,5,1,5,0.00
2013-9-30,78.6,56.5,43.2,61.3,38.8,12.2,99,69,10,30.52,30.35,5,1,7,0.00
2013-10-1,68.9,51.2,47.5,60.2,48.5,42.4,99,93,39,30.40,30.36,4,1,4,0.00
2013-10-2,81.1,64.1,51.4,60.0,48.7,29.4,99,66,16,30.37,30.26,14,2,14,0.00
2013-10-3,79.5,57.7,50.0,58.5,44.7,11.8,99,75,10,30.50,30.36,6,1,11,0.00
2013-10-4,65.5,57.0,50.5,61.3,53.2,42.8,99,88,59,30.49,30.43,2,0,4,0.13
2013-10-5,70.3,61.3,55.8,60.4,55.0,45.2,99,83,41,30.51,30.44,4,0,7,0.02
2013-10-6,58.1,53.6,50.2,57.8,53.3,49.9,99,99,99,30.60,30.49,10,2,11,0.41
2013-10-7,73.6,60.9,52.5,71.9,60.4,52.3,99,98,84,30.48,30.17,15,4,28,0.56
2013-10-8,66.9,52.6,42.6,52.1,32.8,4.2,99,63,10,30.73,30.31,13,2,13,0.01
2013-10-9,66.7,49.6,38.8,45.6,31.1,4.1,99,64,10,30.84,30.72,7,2,11,0.00
2013-10-10,59.7,49.1,38.3,50.8,42.1,26.0,99,82,28,30.72,30.55,3,1,4,0.00
2013-10-11,77.2,56.6,43.9,49.6,34.9,5.3,99,59,10,30.54,30.43,5,1,8,0.00
2013-10-12,54.1,51.9,50.0,53.9,50.9,46.1,99,97,84,30.70,30.50,11,3,11,0.01
2013-10-13,51.1,51.1,51.1,50.8,50.8,50.8,99,99,99,30.70,30.70,2,2,5,0.01
2013-10-14,70.9,55.7,37.9,50.8,37.2,7.1,99,64,10,30.75,30.57,8,2,8,0.01
2013-10-15,68.2,57.3,50.2,56.0,48.2,37.2,99,76,32,30.61,30.51,8,1,8,0.00
2013-10-16,61.0,52.7,46.9,53.7,46.9,32.4,99,84,34,30.52,30.29,8,1,8,0.00
2013-10-17,75.7,60.5,50.4,60.4,49.0,13.8,99,78,10,30.28,30.09,12,2,13,0.00
2013-10-18,64.9,57.1,45.0,60.5,36.9,4.9,99,57,10,30.30,29.99,18,5,21,0.08
2013-10-19,68.2,51.7,39.2,44.6,27.9,4.2,99,54,10,30.37,30.15,14,2,14,0.00
2013-10-20,60.8,49.9,37.9,50.5,24.5,-3.1,99,50,10,30.37,30.10,14,4,20,0.01
2013-10-21,68.2,50.7,37.0,37.9,22.2,2.0,99,45,10,30.46,30.32,10,3,14,0.00
2013-10-22,60.3,50.1,39.4,50.9,39.0,26.0,99,69,36,30.33,30.08,11,4,14,0.00
2013-10-23,53.1,41.7,32.7,32.4,19.0,-5.9,89,48,10,30.17,29.93,8,1,8,0.00
2013-10-24,52.3,41.5,29.7,33.3,9.4,-10.5,99,40,10,30.23,30.01,14,4,23,0.00
2013-10-25,49.3,38.2,30.4,35.2,14.3,-10.6,99,50,10,30.49,30.23,11,3,14,0.00
2013-10-26,52.7,40.8,28.4,33.0,10.4,-8.4,99,44,10,30.50,30.18,21,6,21,0.00
2013-10-27,50.0,43.8,32.9,22.8,10.0,-7.9,64,28,10,30.38,30.12,19,5,19,0.00
2013-10-28,55.9,40.7,30.6,32.1,13.4,-5.9,99,46,10,30.64,30.39,16,4,18,0.00
2013-10-29,49.5,35.6,27.1,14.4,-2.1,-19.2,58,26,10,30.75,30.64,8,2,9,0.00
2013-10-30,53.6,38.9,29.7,39.3,22.3,-10.3,99,56,15,30.65,30.50,7,2,11,0.00
2013-10-31,58.3,47.4,36.0,58.0,47.2,35.7,99,99,99,30.56,30.14,15,3,20,0.35
2013-11-1,65.8,60.4,52.7,63.8,56.4,41.7,99,88,47,30.13,29.80,23,11,40,0.14
2013-11-2,68.7,50.8,39.6,50.3,32.8,4.2,99,67,10,30.11,29.93,11,2,13,0.01
2013-11-3,45.7,36.9,27.1,44.2,6.2,-18.5,99,39,10,30.72,30.10,12,6,15,0.00
2013-11-4,46.8,31.5,23.5,5.2,-10.4,-21.6,42,17,10,30.99,30.73,7,2,11,0.00
2013-11-5,52.7,36.8,24.4,31.5,9.9,-9.0,79,40,10,31.01,30.80,9,2,14,0.00
2013-11-6,59.9,48.0,35.8,48.3,33.1,9.0,99,64,13,30.80,30.36,15,6,19,0.00
2013-11-7,58.6,49.1,36.5,58.2,47.3,10.8,99,94,34,30.36,30.03,21,8,28,0.13
2013-11-8,44.2,34.4,26.2,30.2,10.0,-11.9,84,41,10,30.42,30.16,17,5,21,0.00
2013-11-9,43.9,33.3,25.2,18.6,6.2,-14.3,75,38,10,30.53,30.29,11,2,12,0.00
2013-11-10,51.4,42.1,35.8,38.4,22.3,9.7,99,49,19,30.29,30.07,20,5,22,0.02
2013-11-11,52.2,41.9,33.3,13.9,-0.6,-10.2,44,19,10,30.43,30.22,19,7,21,0.00
2013-11-12,44.1,33.2,28.4,31.1,12.0,-15.9,99,49,13,30.43,30.21,14,5,21,0.02
2013-11-13,35.6,23.2,16.5,7.0,-6.2,-24.4,64,34,10,30.61,30.46,14,4,14,0.00
2013-11-14,51.1,36.4,26.1,5.8,-6.6,-16.1,39,18,10,30.47,30.37,16,5,16,0.00
2013-11-15,61.3,44.0,30.9,4.8,-7.7,-19.2,22,11,10,30.57,30.40,13,4,14,0.00
2013-11-16,62.8,46.0,37.6,28.7,4.9,-10.5,69,21,10,30.63,30.50,10,2,10,0.00
2013-11-17,52.5,45.6,36.9,52.3,44.1,27.5,99,94,67,30.60,30.16,9,2,9,0.02
2013-11-18,64.6,55.3,43.2,59.8,29.6,-0.1,99,51,10,30.14,29.87,23,7,26,0.31
2013-11-19,43.0,34.9,26.4,13.3,-5.9,-17.3,32,18,10,30.61,30.04,19,9,22,0.00
2013-11-20,41.2,29.1,22.8,0.7,-13.4,-23.2,37,16,10,30.93,30.62,15,5,17,0.00
2013-11-21,48.0,33.8,21.6,24.8,-5.0,-25.9,58,21,10,30.95,30.68,13,3,19,0.00
2013-11-22,45.0,41.8,37.8,44.7,39.9,25.4,99,93,59,30.67,30.14,8,2,14,0.12
2013-11-23,45.0,34.4,21.6,44.7,9.5,-17.9,99,47,10,30.27,30.11,19,8,28,0.01
2013-11-24,24.1,18.2,14.0,13.9,-18.1,-32.2,83,26,10,30.52,30.14,24,11,28,0.00
2013-11-25,32.4,21.0,9.1,-18.0,-26.8,-36.1,13,10,10,30.68,30.52,13,6,21,0.00
2013-11-26,33.8,29.7,23.9,32.7,4.5,-22.5,99,45,10,30.64,30.34,10,4,15,0.02
2013-11-27,58.3,42.5,32.0,58.0,42.2,31.8,99,99,99,30.34,29.62,19,5,21,1.35
2013-11-28,32.2,24.7,15.4,30.7,-10.3,-27.9,95,26,10,30.73,29.84,16,2,24,0.00
2013-11-29,33.4,22.1,14.0,4.1,-15.4,-32.4,56,23,10,31.01,30.73,14,3,14,0.00
2013-11-30,33.8,21.6,10.8,-7.0,-22.0,-33.2,24,13,10,31.08,30.72,10,2,11,0.00
2013-12-1,38.3,32.8,25.7,36.2,24.6,-4.4,99,75,26,30.72,30.34,3,0,4,0.00
2013-12-2,37.2,33.5,29.5,37.0,33.2,29.2,99,99,99,30.34,30.24,3,0,4,0.02
2013-12-3,47.7,35.1,28.6,38.8,24.9,-6.5,99,76,10,30.29,30.17,9,2,11,0.00
2013-12-4,44.6,32.2,26.4,29.4,10.2,-13.9,99,52,10,30.50,30.28,8,2,13,0.00
2013-12-5,52.5,42.2,33.4,52.3,34.2,4.7,99,79,26,30.52,30.24,9,3,17,0.02
2013-12-6,53.1,43.3,31.5,52.8,42.9,31.2,99,98,88,30.46,30.20,11,3,19,0.13
2013-12-7,38.1,29.6,20.5,31.0,15.0,-16.9,99,63,10,30.74,30.40,5,0,7,0.09
2013-12-8,27.7,22.6,16.0,8.9,-9.5,-27.5,65,28,10,30.89,30.75,0,0,0,0.00
2013-12-9,32.7,28.5,21.2,32.5,23.2,-11.5,99,85,20,30.76,30.20,0,0,0,0.00
2013-12-10,32.4,27.4,17.4,32.1,17.4,-10.0,99,69,26,30.29,30.10,0,0,0,0.00
2013-12-11,29.1,21.0,16.3,4.7,-8.7,-25.5,57,29,10,30.52,30.29,0,0,0,0.00
2013-12-12,24.3,15.2,7.3,7.0,-21.9,-37.6,60,22,10,30.57,30.38,0,0,0,0.00
2013-12-13,25.5,16.6,9.1,-10.0,-28.6,-35.9,23,11,10,30.66,30.30,20,4,20,0.00
2013-12-14,16.3,9.2,5.0,2.7,-29.6,-39.5,54,17,10,30.88,30.42,14,4,14,0.00
2013-12-15,24.4,21.2,15.8,19.9,10.2,-5.5,83,63,30,30.39,29.78,14,6,16,0.00
2013-12-16,26.6,19.7,10.9,6.5,-20.9,-34.8,55,18,10,30.48,30.04,20,6,26,0.00
2013-12-17,13.1,7.7,0.9,-4.6,-23.4,-41.3,44,24,10,30.53,30.27,7,2,9,0.00
2013-12-18,31.8,21.0,11.3,6.7,-7.7,-24.4,60,33,10,30.36,30.20,14,5,15,0.01
2013-12-19,40.1,30.0,19.6,7.4,-12.4,-23.7,54,17,10,30.41,30.26,17,5,21,0.04
2013-12-20,52.0,39.6,30.0,-2.9,-12.4,-19.9,10,10,10,30.42,30.22,13,4,16,0.01
2013-12-21,58.6,48.2,40.5,43.8,6.2,-11.6,78,24,10,30.29,30.16,14,6,16,0.00
2013-12-22,61.0,52.8,35.6,60.4,51.6,35.4,99,96,76,30.28,30.08,22,8,27,0.02
2013-12-23,39.0,35.4,32.7,38.8,35.0,30.4,99,99,86,30.40,30.25,11,3,13,0.35
2013-12-24,33.1,27.6,19.6,32.7,-11.0,-28.0,99,25,10,30.50,30.35,6,0,11,0.00
2013-12-25,24.4,15.6,8.6,-24.2,-31.1,-36.6,10,10,10,30.78,30.52,14,4,49,0.00
2013-12-26,29.1,21.5,13.6,20.6,-0.5,-32.7,77,46,10,30.74,30.34,9,3,11,0.00
2013-12-27,34.2,24.4,14.9,11.8,-11.8,-23.9,67,26,10,30.56,30.47,8,3,12,0.00
2013-12-28,45.9,31.9,21.9,5.9,-8.9,-20.2,46,19,10,30.51,30.29,12,4,19,0.02
2013-12-29,41.0,34.8,30.4,35.5,3.5,-19.6,99,42,10,30.35,29.78,12,3,14,0.79
2013-12-30,37.2,26.6,11.7,32.7,-19.6,-34.2,99,15,10,30.45,29.90,27,8,27,0.00
2013-12-31,24.3,14.7,6.1,-9.5,-28.1,-36.2,28,13,10,30.45,30.28,13,4,21,0.00
2014-1-1,25.0,17.1,13.1,-23.8,-30.0,-33.1,10,10,10,30.63,30.44,13,4,16,0.00
2014-1-2,15.8,8.8,-0.4,-12.6,-29.7,-43.7,27,15,10,30.61,30.08,14,5,16,0.00